TimeCET,TemperatureF,Dew PointF,Humidity,Sea Level PressureIn,VisibilityMPH,Wind Direction,Wind SpeedMPH,Gust SpeedMPH,PrecipitationIn,Events,Conditions,WindDirDegrees,DateUTC
4:00 AM,10,9,91,,6,SSW,8.1,,,,Partly Cloudy,210,2013-03-12 03:00:00
9:55 AM,12.2,8.6,85,29.33,6.2,SSW,10.4,-,N/A,,Mostly Cloudy,200,2013-03-12 08:55:00
10:00 AM,12,9,83,,6,SSW,10.4,,,,Mostly Cloudy,200,2013-03-12 09:00:00
10:55 AM,14.0,10.4,86,29.33,0.1,SSW,10.4,-,N/A,Fog-Snow,Light Snow,200,2013-03-12 09:55:00
11:55 AM,14.0,10.4,86,29.33,0.3,SSW,12.7,-,N/A,Fog-Snow,Light Snow,200,2013-03-12 10:55:00
12:55 PM,15.8,10.4,79,29.33,0.3,SSW,12.7,-,N/A,Fog-Snow,Light Snow,200,2013-03-12 11:55:00
1:00 PM,15,11,75,,0,SSW,12.7,,,Snow,Light Snow,200,2013-03-12 12:00:00
1:55 PM,17.6,10.4,73,29.33,6.2,SSW,4.6,-,N/A,,Scattered Clouds,200,2013-03-12 12:55:00
2:55 PM,17.6,10.4,73,29.33,6.2,SSW,4.6,-,N/A,,Scattered Clouds,200,2013-03-12 13:55:00
3:55 PM,17.6,10.4,73,29.33,6.2,Variable,2.3,-,N/A,,Scattered Clouds,0,2013-03-12 14:55:00
4:00 PM,18,10,59,,6,,2.3,,,,Partly Cloudy,,2013-03-12 15:00:00
4:55 PM,17.6,10.4,73,29.30,0.2,SSW,4.6,-,N/A,Fog-Snow,Light Snow,200,2013-03-12 15:55:00
5:55 PM,15.8,8.6,73,29.33,0.5,SSW,4.6,-,N/A,Fog-Snow,Light Snow,200,2013-03-12 16:55:00
6:55 PM,14.0,5.0,67,29.33,6.2,Variable,2.3,-,N/A,,Scattered Clouds,0,2013-03-12 17:55:00
7:00 PM,14,6,58,,12,,2.3,,,Fog,Light Fog,,2013-03-12 18:00:00
7:55 PM,12.2,5.0,73,29.33,6.2,Variable,3.5,-,N/A,,Partly Cloudy,0,2013-03-12 18:55:00
8:55 PM,10.4,5.0,79,29.33,-9999.0,Variable,3.5,-,N/A,,Clear,0,2013-03-12 19:55:00
9:55 PM,10.4,1.4,67,29.30,-9999.0,Variable,3.5,-,N/A,,Clear,0,2013-03-12 20:55:00
10:00 PM,11,1,52,,6,,3.5,,,,Partly Cloudy,,2013-03-12 21:00:00
10:55 PM,10.4,-4.0,52,29.30,-9999.0,North,2.3,-,N/A,,Clear,360,2013-03-12 21:55:00
11:55 PM,10.4,-4.0,52,29.30,-9999.0,Variable,1.2,-,N/A,,Clear,0,2013-03-12 22:55:00